CZ-2C R/B, 48427

Orbit data source: Space-Track

CZ-2C R/B, 48427 is space debris in LEO originally from a launch on Thu, 06 May 2021 UTC launched from the Xichang Space Center, China (XSC). Debris objects in space refer to the collection of defunct objects orbiting the Earth. Examples of debris include non-operational satellites, rocket bodies, and fragments generated from explosions, collisions, or faulty payload assembly.

Not visible in the next 10 days
Identifier
48427, 2021-039E
Orbit
LEO
Country
Flag of CNCN / PRC
Related business
Manufacturer
CALT
Mission
Spacecraft
Bus & Motor
CZ-2 STAGE 2, Unknown motor
Mass
~3,800 kg wet, ~3,800 kg dry
Launch date (UTC)
2021-05-06 (5 years ago)
Launch vehicle
Unknown
Launch site
Xichang Space Center, China (XSC)
Object type
Payload
Rocket body
Debris
Shape & HBR
Cyl, 3.7 m
Radar Cross Section
23.715 m², Large (>1 m²)

Expand to show TLE details & history
Last TLE update: 2 days ago

TLE from 2 days ago
0 CZ-2C R/B
1 48427U 21039E   26171.33346234  .00081486  00000-0  43553-3 0  9995
2 48427  34.9765 149.3405 0021330 170.3891 189.7252 15.78760909286096
Epoch: 2026-06-20T08:00Z
TLE epoch observation values (Epoch: 2026-06-20T08:00:11.146Z)
Latitude
-0°
Longitude
120.74447°
Altitude
346.937 km
Speed
7.695 km/s
True Right ascension
09h 57m 21s
True Declination
0° 00' 00"
Sunlit
Object was in daylight at epoch
Visualization orbit readout
Latitude
Unknown
Longitude
Unknown
Altitude
Unknown
Speed
Unknown
Apparent Right ascension
Unknown
Apparent Declination
Unknown
Sunlit
N/A
Visualization observer readout
Local Sidereal Time
21:37:04
Azimuth
Unknown
Elevation
Unknown
Doppler factor
Unknown
Orbital elements
Apogee altitude
351.607 km
Perigee altitude
322.959 km
Semi-major axis
6,715.42 km
Eccentricity
0.00213
Inclination
34.9765°
RAAN
149.3405°
Arg. of periapsis
170.3891°
True anomaly
189.68402°
Mean anomaly
189.7252°
Eccentric anomaly
189.7046°
Mean motion
3.94397 °/min
Orbital period
91.28 mins
BSTAR
0.00043553
Loading maneuver chart data...
Computing Atmospheric mass density...
Loading historical data...
Loading historical data...
Loading historical data...
Loading historical data...
Loading historical data...
Loading historical data...
Loading historical data...
Other satellites on launch #39 in the year 2021 (2021-05-06 UTC)

Documentation

Showing up to 5 results
|